Погода в Киевском

Россия / Краснодарский край     45°02′17″N   37°53′22″E
темп.,
°C
ветер,
м/с
пор.,
м/с
влажн.,
%
обл.,
%
осадки,
мм/ч
давл.,
гПа
погр.,
м
28 сентября, вт
вт2800:00+10с00800 0.0 101810
03:00+9с11810 0.0 101810
06:00+8вюв00800 0.0 101910
09:00+13всв23613 0.0 1019330
12:00+18св45425 0.0 10191738
15:00+19ссв443828 0.0 10192062
18:00+15с225483 0.0 101919
21:00+12св236986 0.0 102040
29 сентября, ср
ср2900:00+11св1169100 0.0 102117
03:00+11св2369100 0.0 102144
06:00+13св4968100 0.0 1021365
09:00+13св51169100 0.0 1022580
12:00+16всв7105698 0.0 10221208
15:00+17св71051100 0.0 10211622
18:00+15св7115395 0.0 10221107
21:00+13св7125495 0.0 1024893
30 сентября, чт
чт3000:00+11св7135492 0.0 1024797
03:00+10св7135636 0.0 1024698
06:00+8св714626 0.0 1025520
09:00+11всв914502 0.0 1026903
12:00+15всв1012394 0.0 10261484
15:00+16всв1012340 0.0 10251647
18:00+13всв713390 0.0 1026600
21:00+10св614460 0.0 1027551
1 октября, пт
пт100:00+9всв714490 0.0 1027540
03:00+8всв615530 0.0 1027479
06:00+7всв615600 0.0 1028453
09:00+11всв914550 0.0 1028840
12:00+15всв1013451 0.0 10271425
15:00+17всв912405 0.0 10261675
18:00+13в814560 0.0 1027839
21:00+11всв716610 0.0 1028835
2 октября, сб
сб200:00+9всв715630 0.0 1027668
03:00+8всв614570 0.0 1027572
06:00+8всв614650 0.0 1027595
09:00+11в812590 0.0 1027802
12:00+16в811470 0.0 10261191
15:00+18в911390 0.0 10241497
18:00+15всв814430 0.0 1024710
21:00+13всв714485 0.0 1024747